STARLINK-31476, 59523

Orbit data source: Space-Track

STARLINK-31476, 59523 is a payload satellite owned by SpaceX/Seattle (US) in LEO that was launched on Wed, 17 Apr 2024 UTC via an FALCON 9 launch vehicle from the Air Force Eastern Test Range (AFETR). Payload-class satellites include a variety of spacecraft equipped with specific instruments for various scientific and technological missions. These include communications satellites like Starlink; space stations such as the ISS; scientific satellites like the Hubble; Earth observation satellites from companies like Planet Labs, Umbra, and HawkEye 360; GPS; miniature CubeSats for education and research; and military/defense satellites.

Loading next visibility...
Identifier
59523, 2024-073N
Orbit
LEO
Country
Flag of USUS
Related business
Manufacturer
SpaceX/Seattle
Mission
Operational Commercial Communications
Bus & Motor
STARLINK V2M, Unknown motor
Mass
730 kg wet, ~700 kg dry
Launch date (UTC)
2024-04-17 (2 years ago)
Launch vehicle
FALCON 9
Launch site
Air Force Eastern Test Range (AFETR)
Object type
Payload
Rocket body
Debris
Shape & HBR
Box + 2 Pan, 17.7 m
Radar Cross Section
33.884 m², Large (>1 m²)

Expand to show TLE details & history
Last TLE update: 2 days ago

TLE from 2 days ago
0 STARLINK-31476
1 59523U 24073N   26171.14848595  .00001200  00000-0  53112-4 0  9990
2 59523  43.0026  99.5314 0001087 272.2453  87.8274 15.27582257121849
Epoch: 2026-06-20T03:33Z
TLE epoch observation values (Epoch: 2026-06-20T03:33:49.186Z)
Latitude
-0.00001°
Longitude
137.70918°
Altitude
482.79 km
Speed
7.626 km/s
True Right ascension
06h 38m 07s
True Declination
0° 00' 00"
Sunlit
Object was in daylight at epoch
Visualization orbit readout
Latitude
Unknown
Longitude
Unknown
Altitude
Unknown
Speed
Unknown
Apparent Right ascension
Unknown
Apparent Declination
Unknown
Sunlit
N/A
Visualization observer readout
Local Sidereal Time
15:30:36
Azimuth
Unknown
Elevation
Unknown
Doppler factor
Unknown
Orbital elements
Apogee altitude
485.733 km
Perigee altitude
484.241 km
Semi-major axis
6,863.124 km
Eccentricity
0.00011
Inclination
43.0026°
RAAN
99.5314°
Arg. of periapsis
272.2453°
True anomaly
87.83985°
Mean anomaly
87.8274°
Eccentric anomaly
87.83362°
Mean motion
3.81734 °/min
Orbital period
94.31 mins
BSTAR
0.000053112
Loading maneuver chart data...
Computing Atmospheric mass density...
Loading historical data...
Loading historical data...
Loading historical data...
Loading historical data...
Loading historical data...
Loading historical data...
Loading historical data...

Documentation

Showing up to 5 results
|